Regional Weather Roundup
Issued by NWS

Home | Current Version | Previous Version | Graphics & Text | Print | Product List | Glossary On
Versions: 1 2 3 4 5 6 7 8 9 10 11 12 13 14 15 16 17 18 19 20 21 22 23 24 25 26 27
000
ASUS45 KCYS 261610
RWRWY

WYOMING REGIONAL WEATHER ROUNDUP
NATIONAL WEATHER SERVICE CHEYENNE WY
1000 AM MDT WED APR 26 2017

NOTE:  "FAIR" INDICATES FEW OR NO CLOUDS BELOW 12,000 FEET
WITH NO SIGNIFICANT WEATHER AND/OR OBSTRUCTIONS TO VISIBILITY.

WYZ001-261700-
YELLOWSTONE NATIONAL PARK

CITY           SKY/WX    TMP DP  RH WIND       PRES   REMARKS
LK YELLOWSTONE   N/A     29  27  92 VRB5      29.80F WCI  24
W YELLOWSTONE  NOT AVBL

$$
WYZ002>013-054>058-071-098>099-261700-
NORTHERN WYOMING

CITY           SKY/WX    TMP DP  RH WIND       PRES   REMARKS
JACKSON        LGT SNOW  34  32  93 S8        29.81F WCI  27
CODY           FAIR      46  26  45 W14G20    29.75F
GREYBULL       FAIR      45  34  65 VRB3      29.75F
WORLAND        FAIR      44  38  79 W3        29.75F
SHERIDAN       CLOUDY    31  27  85 NW3       29.79F
BUFFALO          N/A     30  25  81 CALM      29.75
GILLETTE       CLOUDY    28  28 100 SE6       29.79F WCI  22
HULETT         CLOUDY    28  27  93 CALM      29.82F
NEWCASTLE      FAIR      32  27  80 SW6       29.82S WCI  26

$$
WYZ014>020-022>026-101>103-261700-
CENTRAL WYOMING

CITY           SKY/WX    TMP DP  RH WIND       PRES   REMARKS
BIG PINEY      PTSUNNY   41  26  55 SW14      29.83F
PINEDALE       CLOUDY    36  27  69 E6        29.85S WCI  31
DUBOIS         CLOUDY    36  30  80 NW14G21   29.76S WCI  27
LANDER         FAIR      45  31  58 SE13      29.75F
RIVERTON       FAIR      39  32  76 S5        29.78S
CASPER         FAIR      44  34  67 SW10      29.77F
DOUGLAS        FAIR      42  33  70 VRB5      29.78F

$$
WYZ021-027>030-104>119-261700-
SOUTHERN WYOMING

CITY           SKY/WX    TMP DP  RH WIND       PRES   REMARKS
EVANSTON       CLOUDY    37  29  72 W20G26    29.89F WCI  27
KEMMERER       LGT SNOW  34  32  93 SW12      29.87F WCI  25
FORT BRIDGER   CLOUDY    43  31  62 W22G31    29.91S
ROCK SPRINGS   CLOUDY    40  30  67 W18G25    29.86F WCI  31
DIXON            N/A     40  32  74 SW3       29.90
RAWLINS        PTSUNNY   38  29  70 SW20      29.83S WCI  28
SARATOGA       CLOUDY    37  28  70 W15       29.86F WCI  28
LARAMIE        PTSUNNY   39  24  55 SW6       29.80F WCI  35
CHEYENNE       FAIR      47  24  40 NW18G29   29.78F
TORRINGTON     FAIR      43  30  60 S5        29.79F
PINE BLUFFS    FAIR      45  28  53 N9G17     29.80F

$$




USA.gov is the U.S. government's official web portal to all federal, state and local government web resources and services.